Location: Prague
(50.0830°N, 14.4670°E)
Time: 23:41:38
(UTC+02:00)

Tiangong - Pass Details

Date: 29 September 2021
Orbit: 382 x 385 km, 41.5° (Epoch: 15 October)

Event Time Altitude Azimuth Distance (km) Brightness Sun altitude
Exits shadow 06:11:52 - 223° (SW) 1,700 3.9 -8.4°
Reaches altitude 10° 06:12:53 10° 211° (SSW) 1,397 3.5 -8.2°
Maximum altitude 06:14:54 16° 171° (S) 1,102 3.4 -7.9°
Drops below altitude 10° 06:16:52 10° 132° (SE) 1,384 4.5 -7.6°
Sets 06:19:31 0° 109° (ESE) 2,250 6.4 -7.2°
